Torna al catalogo

STARLINK-4492

AttivoComunicazioniVLEO
NORAD 53410·PAYLOAD·🇺🇸 United States

Lanciato Aug 10, 2022 da Cape Canaveral Space Force Station

Loading…

Prossimi Passaggi (prossime 24 ore)

TLE

AggiornatoSource: CelesTrak SupGP

Epoca: Sep 15, 2026, 02:06 UTC

1 53410C 22097Y   26258.08798611  .00237190  00000+0  10947-1 0  2587
2 53410  53.1589 342.4628 0001266  94.4853 300.1785 15.19590308    19

Traccia STARLINK-4492 in tempo reale con AllMySat

Download on the App Store